Погода в Иргизе

Хотите узнать прогноз погоды в Иргизе? Тогда Вам сюда: Погода в Иргизе

Поиск расширенной информации на нашем сайте:

Полезная информация:

Новости сайта



02.01.2020
Опубликован Долгосрочный прогноз погоды по городам России и ближнего зарубежья на январь 2020 года.
Карты: Прогноз на январь и февраль 2020 года, Сравнение прогнозируемой аномалии приземной температуры воздуха на январь 2020 года по разным моделям.




Погода в Иргизе - сегодня

Время (UTC), дата Ветер
(°,м/с) 
Видим.   Явления Облачность Т
(°С)
Тd
(°С)
f(%) Тe
(°С)
Pmin
(гПа)
dP
(гПа)
Po
(мм)
O2
(г/м3)
Тmin Tmax R s Состояние
почвы
12 22.10.21 200 (Ю) 20000 м  {дождь}  9/0 средняя, верхняя 
[Ac und|Cc]
+8.1 +3.9 75 +6  1021.1  0.4  755  295           
15 22.10.21 200 (Ю) н/о    8/0 средняя 
[Ac cuf]
+7.7 +3.5 75 +6  1021.9  0.8  756  296    +8.5     
18 22.10.21 240 (ЮЗ) н/о    9/0 средняя 
[Ac und]
+8.2 +1.6 63 +7  1022.6  0.7  756  296    +8.5     
21 22.10.21 230 (ЮЗ) н/о    6/0 средняя 
[Ac cast]
+7.6 +2 68 +6  1023.2  0.5  757  296           
00 23.10.21 230 (ЮЗ) н/о    9/0 средняя, верхняя 
[Ac cast|Cc]
+6.1 +1.9 74 +4  1023.4  0.2  757  298           
03 23.10.21 210 (ЮЗ) 20000 м    3/0 верхняя 
[Ci sp]
+5.4 +3 84 +4  1023.8  0.3  757  299           
06 23.10.21 230 (ЮЗ) 20000 м    6/0 средняя, верхняя 
[Ac und|Ci fib]
+11.9 +7.8 76 +11  1025  1.5  758  291  +4.8         
09 23.10.21 230 (ЮЗ) 20000 м    9/0 средняя 
[Ac und]
+15.2 +8.5 64 +15  1024.7  -0.1  758  288           
12 23.10.21 230 (ЮЗ) 20000 м    9/0 средняя 
[Ac und]
+16.4 +8.3 59 +16  1024.5  -0.1  758  287           
15 23.10.21 220 (ЮЗ) н/о    6/0 средняя 
[Ac und]
+12.6 +8.4 76 +12  1025.5  0.8  759  291    +17.5       
18 23.10.21 200 (Ю) н/о    ясно 
+9.5 +3.2 65 +8  1025.7  759  295    +17.5       
21 23.10.21 180 (Ю) н/о    ясно 
+6.2 +0.5 67 +6  1025.9  759  299           
00 24.10.21 160 (Ю) н/о    ясно 
+3.1 -0.5 77 +4  1025.9  -0.1  758  302           
03 24.10.21 160 (Ю) 20000 м    ясно 
+0.8 -1.8 83 1025.4  -0.6  758  305           
06 24.10.21 160 (Ю) 20000 м    ясно 
+9.1 -0.7 50 +9  1024.5  -0.6  758  295  +0.7         
09 24.10.21 180 (Ю) 20000 м    ясно 
+14.5 -2.8 30 +14  1023  -1.1  757  290           
12 24.10.21 180 (Ю) 20000 м    ясно 
+15.4 -4.3 25 +15  1021.1  -1.8  755  289           
15 24.10.21 160 (Ю) н/о    ясно 
+8.8 -1.8 47 +9  1021  -0.5  755  295    +16.5       
18 24.10.21 160 (Ю) н/о    ясно 
+6.8 -1.5 55 +7  1020.1  -0.9  754  297    +16.5       
21 24.10.21 160 (Ю) н/о    ясно 
+5.3 -1.9 60 +5  1019.1  -1.2  753  298           
00 25.10.21 120 (ЮВ) н/о    ясно 
+3.2 -0.3 78 +3  1018  -1.1  753  300           
03 25.10.21 120 (ЮВ) 20000 м    ясно 
+2.6 -2 72 +2  1017.2  -0.9  752  300  +2.5         
06 25.10.21 180 (Ю) 20000 м    ясно 
+9.6 -21.3 9 +9  1016.2  -0.6  752  294  +2.5         
09 25.10.21 190 (Ю) 20000 м    9/0 верхняя 
[Ci sp]
+14.8 -0.9 34 +15  1014.3  -1.6  750  287           
12 25.10.21 190 (Ю) 20000 м    9/0 верхняя 
[Ci sp]
+15.7 -0.7 33 +16  1012.5  -1.7  749  285           
Время (UTC), дата Ветер
(°,м/с) 
Видим.   Явления Облачность Т
(°С)
Тd
(°С)
f(%) Тe
(°С)
Pmin
(гПа)
dP
(гПа)
Po
(мм)
O2
(г/м3)
Тmin Tmax R s Состояние
почвы

Для получения пояснительной информации подведите курсор к названию столбца.

ПОГОДА в Иргизе - архив

Всё, что Вы хотите узнать о погоде в Иргизе - удобно и подробно!

Выберите нужную дату (начиная с 1 января 2019* года) и нажмите кнопку "Найти".
Будут отображены архивные сводки погоды по пункту Иргиз, начиная с указанной даты.


Отображать данные в формате CSV (для использования в таблицах Excel)


Внимание! Наш архив погоды предназначен исключительно для личного некоммерческого использования в познавательных целях. Если Вам необходимы официальные справки о состоянии погоды (для производственных, юридических, коммерческих и т.п. целей), обращайтесь в органы Росгидромета.

*Примечание: данная дата относится к архиву по метеостанциям СССР (Россия, СНГ, Балтия).
Архив по метеостанциям Зарубежной Европы и Азии (кроме Китая) хранится 10 дней, по другим регионам земного шара (Китай, Африка, Америка, Австралия, Океания) - 1 день.

Иргиз - район местоположения метеостанции


Название, широта, долгота, высота метеостанции:
Иргиз 48.6°ш. 61.3°д. 114 м над ур. моря [Казахстан]

Дополнительная информация

В oтличие oт бoльшинства пoгoдных сайтoв мы публикуем пoдрoбную метеoинфoрмацию в детальнoм прoфессиoнальнoм фoрмате.

Характеристики температуры и влажнoсти вoздуха измеряются на высoте 2 м в тени вдали oт зданий и деревьев.
Скoрoсть ветра измеряется на высoте 10 м (на урoвне рoста челoвека скoрoсть ветра ниже в 1.5-2 раза). Если метеoстанция нахoдится в гoрoде или в лесу, тo скoрoсть ветра занижена на 2-4 м/с пo сравнению с oткрытым местoм. Скoрoсть ветра над акватoриями крупных рек и oзёр, а также на вершинах хoлмoв на 2-5 м/с выше, чем в oбычных услoвиях.
Атмoсфернoе давление в разных тoчках местнoсти мoжет значительнo oтличаться oт давления на метеoстанции, в зависимoсти oт услoвий рельефа (при пoдъёме на 10 м давление пoнижается примернo на 1 мм рт.ст.).